| time (UTC) | temp C | wind direction | speed KPH | gust KPH | rain 1hr cm | rain 24hr cm | rain mn cm | humidity % | barometer mb |
| 20260503201530 | 11 | 172 | 27.4 | 32.2 | 0.00 | 0.36 | 0.36 | 83 | 1010.7 |
| 20260503200032 | 11 | 174 | 24.1 | 30.6 | 0.00 | 0.36 | 0.36 | 85 | 1011.3 |
| 20260503194534 | 10 | 171 | 19.3 | 29.0 | 0.03 | 0.36 | 0.36 | 86 | 1011.7 |
| 20260503193029 | 9 | 169 | 20.9 | 29.0 | 0.20 | 0.36 | 0.36 | 88 | 1012.0 |
| 20260503191528 | 8 | 158 | 20.9 | 25.7 | 0.25 | 0.36 | 0.36 | 89 | 1012.2 |
| 20260503190043 | 8 | 171 | 12.9 | 17.7 | 0.28 | 0.36 | 0.36 | 88 | 1013.1 |
| 20260503184531 | 8 | 214 | 9.7 | 16.1 | 0.30 | 0.33 | 0.33 | 88 | 1013.9 |
| 20260503183030 | 9 | 250 | 9.7 | 24.1 | 0.15 | 0.15 | 0.15 | 87 | 1014.4 |
| 20260503181528 | 9 | 233 | 16.1 | 33.8 | 0.10 | 0.10 | 0.10 | 84 | 1014.6 |
| 20260503180039 | 9 | 245 | 14.5 | 22.5 | 0.08 | 0.08 | 0.08 | 83 | 1014.6 |
| 20260503174529 | 10 | 256 | 14.5 | 41.8 | 0.03 | 0.03 | 0.03 | 80 | 1015.0 |
| 20260503173034 | 10 | 265 | 24.1 | 37.0 | 0.00 | 0.00 | 0.00 | 74 | 1015.0 |
| 20260503171538 | 11 | 260 | 25.7 | 51.5 | 0.00 | 0.00 | 0.00 | 69 | 1014.7 |
| 20260503081538 | 5 | 235 | 8.0 | 17.7 | 0.00 | 0.00 | 0.00 | 68 | 1016.0 |
| 20260503071530 | 5 | 249 | 6.4 | 14.5 | 0.00 | 0.00 | 0.00 | 68 | 1016.3 |
| 20260503054537 | 6 | 233 | 8.0 | 16.1 | 0.00 | 0.00 | 0.00 | 66 | 1017.0 |
| 20260503053028 | 6 | 238 | 8.0 | 16.1 | 0.00 | 0.00 | 0.00 | 65 | 1017.1 |
| 20260503051526 | 6 | 232 | 8.0 | 16.1 | 0.00 | 0.00 | 0.00 | 64 | 1017.1 |
| 20260503050028 | 7 | 231 | 6.4 | 16.1 | 0.00 | 0.00 | 0.00 | 63 | 1017.3 |
| 20260503044528 | 7 | 224 | 6.4 | 12.9 | 0.00 | 0.00 | 0.00 | 62 | 1017.3 |
| 20260503043031 | 7 | 219 | 6.4 | 14.5 | 0.00 | 0.00 | 0.00 | 60 | 1017.2 |
| 20260503041528 | 7 | 233 | 6.4 | 14.5 | 0.00 | 0.00 | 0.00 | 59 | 1017.3 |
| 20260503040028 | 7 | 231 | 8.0 | 16.1 | 0.00 | 0.00 | 0.00 | 58 | 1017.4 |
| 20260503034527 | 7 | 224 | 6.4 | 14.5 | 0.00 | 0.00 | 0.00 | 57 | 1017.4 |
| 20260503033041 | 8 | 248 | 6.4 | 12.9 | 0.00 | 0.00 | 0.00 | 57 | 1017.4 |
| 20260503031528 | 8 | 219 | 4.8 | 12.9 | 0.00 | 0.00 | 0.00 | 56 | 1017.5 |
| 20260503030028 | 8 | 225 | 3.2 | 9.7 | 0.00 | 0.00 | 0.00 | 55 | 1017.5 |
| 20260503024528 | 8 | 219 | 3.2 | 8.0 | 0.00 | 0.00 | 0.00 | 54 | 1017.6 |
| 20260503023028 | 8 | 216 | 1.6 | 11.3 | 0.00 | 0.00 | 0.00 | 53 | 1017.6 |
| 20260503021529 | 8 | 231 | 4.8 | 9.7 | 0.00 | 0.00 | 0.00 | 52 | 1017.5 |
| 20260503020028 | 8 | 202 | 6.4 | 11.3 | 0.00 | 0.00 | 0.00 | 51 | 1017.5 |
| 20260503014541 | 9 | 200 | 4.8 | 8.0 | 0.00 | 0.00 | 0.00 | 49 | 1017.6 |
| 20260503013034 | 9 | 210 | 6.4 | 9.7 | 0.00 | 0.00 | 0.00 | 48 | 1017.5 |
| 20260503011530 | 9 | 207 | 1.6 | 4.8 | 0.00 | 0.00 | 0.00 | 48 | 1017.4 |
| 20260503010031 | 10 | 191 | 3.2 | 4.8 | 0.00 | 0.00 | 0.00 | 46 | 1017.4 |
| 20260503004530 | 10 | 202 | 0.0 | 3.2 | 0.00 | 0.00 | 0.00 | 44 | 1017.3 |
| 20260503003029 | 11 | 215 | 1.6 | 1.6 | 0.00 | 0.00 | 0.00 | 42 | 1017.5 |
| 20260503001530 | 10 | 0 | 0.0 | 1.6 | 0.00 | 0.00 | 0.00 | 43 | 1017.5 |
| 20260503000029 | 11 | 236 | 0.0 | 3.2 | 0.00 | 0.00 | 0.00 | 43 | 1017.5 |
| 20260502234526 | 11 | 248 | 1.6 | 6.4 | 0.00 | 0.00 | 0.00 | 42 | 1017.4 |
| 20260502233028 | 11 | 264 | 3.2 | 8.0 | 0.00 | 0.00 | 0.00 | 41 | 1017.5 |
| 20260502231528 | 11 | 266 | 1.6 | 9.7 | 0.00 | 0.00 | 0.00 | 42 | 1017.6 |
| 20260502230029 | 11 | 269 | 4.8 | 20.9 | 0.00 | 0.00 | 0.00 | 38 | 1017.6 |
| 20260502224529 | 11 | 314 | 9.7 | 29.0 | 0.00 | 0.00 | 0.00 | 38 | 1017.6 |
| 20260502223030 | 11 | 305 | 12.9 | 20.9 | 0.00 | 0.00 | 0.00 | 40 | 1017.8 |
| 20260502221529 | 12 | 0 | 0.0 | 11.3 | 0.00 | 0.00 | 0.00 | 42 | 1017.8 |
| 20260502220028 | 11 | 37 | 1.6 | 16.1 | 0.00 | 0.00 | 0.00 | 38 | 1017.8 |
| 20260502214530 | 11 | 0 | 3.2 | 14.5 | 0.00 | 0.00 | 0.00 | 39 | 1017.7 |
| 20260502213030 | 11 | 330 | 14.5 | 20.9 | 0.00 | 0.00 | 0.00 | 37 | 1018.0 |
| 20260502211539 | 11 | 333 | 11.3 | 20.9 | 0.00 | 0.00 | 0.00 | 38 | 1017.9 |
| 20260502210034 | 11 | 335 | 16.1 | 22.5 | 0.00 | 0.00 | 0.00 | 38 | 1018.0 |
| 20260502204526 | 11 | 311 | 8.0 | 19.3 | 0.00 | 0.00 | 0.00 | 39 | 1018.2 |
| 20260502203026 | 10 | 333 | 12.9 | 22.5 | 0.00 | 0.00 | 0.00 | 36 | 1018.4 |